Location: Black Swamp Observatory
(41.3920°N, 84.1250°W)
Time: 06:43:13
(UTC-05:00)

S-56A Canister/Altair - Visible Passes

Search period start: 19 January 2022 00:00
Search period end: 29 January 2022 00:00
Orbit: 633 x 2499 km, 38.9° (Epoch: 18 January)

Date Brightness Start Highest point End Pass type
(mag) Time Alt. Az. Time Alt. Az. Time Alt. Az.
26 Jan 9.7 06:52:13 10° S 06:55:15 18° SE 06:58:31 10° ESE visible
27 Jan 9.8 06:20:20 10° S 06:22:51 15° SE 06:25:26 10° ESE visible
28 Jan 9.9 05:48:38 10° S 05:50:25 12° SE 05:52:12 10° ESE visible
